Tracking 20041 objects as of 22-Nov-2019
Live streaming from Space Station
objects crossing your sky now

COSMOS 2357

Track COSMOS 2357 now!
10-day predictions
COSMOS 2357 is classified as:


NORAD ID: 25368
Int'l Code: 1998-036F
Perigee: 1,301.6 km
Apogee: 1,868.7 km
Inclination: 82.6 °
Period: 117.7 minutes
Semi major axis: 7956 km
RCS: 1.0721 m2 (large)
Launch date: June 15, 1998
Source: Commonwealth of Independent States (former USSR) (CIS)
Launch site: PLESETSK MISSILE AND SPACE COMPLEX (PKMTR)

Satellites have a single simultaneous earth-space and space-earth channel.
aabbcc
Your satellite tracking list
Your tracking list is empty




NASA's NSSDC Master Catalog

Two Line Element Set (TLE):
1 25368U 98036F   19325.51006470 +.00000003 +00000-0 -59472-4 0  9998
2 25368 082.5831 306.2320 0356405 156.0450 205.7670 12.23343564957206
Source of the keplerian elements: AFSPC